| time (UTC) | temp C | wind direction | speed KPH | gust KPH | rain 1hr cm | rain 24hr cm | rain mn cm | humidity % | barometer mb |
| 20260505054604 | 8 | 0 | 0.0 | 1.6 | 0.00 | 0.00 | 0.00 | 77 | 1011.1 |
| 20260505053109 | 9 | 0 | 0.0 | 3.2 | 0.00 | 0.00 | 0.00 | 76 | 1010.9 |
| 20260505051550 | 10 | 51 | 1.6 | 3.2 | 0.00 | 0.00 | 0.00 | 73 | 1010.8 |
| 20260505041612 | 11 | 0 | 0.0 | 0.0 | 0.00 | 0.00 | 0.00 | 65 | 1010.1 |
| 20260505040054 | 12 | 0 | 0.0 | 0.0 | 0.00 | 0.00 | 0.00 | 64 | 1009.9 |
| 20260505034553 | 13 | 0 | 0.0 | 0.0 | 0.00 | 0.00 | 0.00 | 61 | 1009.9 |
| 20260505033052 | 15 | 0 | 0.0 | 0.0 | 0.00 | 0.00 | 0.00 | 57 | 1009.6 |
| 20260505031600 | 16 | 0 | 0.0 | 0.0 | 0.00 | 0.00 | 0.00 | 55 | 1009.5 |
| 20260505030056 | 17 | 0 | 0.0 | 4.8 | 0.00 | 0.00 | 0.00 | 51 | 1009.5 |
| 20260505024552 | 18 | 0 | 0.0 | 4.8 | 0.00 | 0.00 | 0.00 | 44 | 1009.5 |
| 20260505023102 | 20 | 0 | 0.0 | 4.8 | 0.00 | 0.00 | 0.00 | 38 | 1009.4 |
| 20260505021555 | 20 | 107 | 1.6 | 9.7 | 0.00 | 0.00 | 0.00 | 35 | 1009.4 |
| 20260505020053 | 20 | 92 | 3.2 | 14.5 | 0.00 | 0.00 | 0.00 | 35 | 1009.4 |
| 20260505014557 | 21 | 13 | 4.8 | 14.5 | 0.00 | 0.00 | 0.00 | 34 | 1009.4 |
| 20260505013059 | 21 | 72 | 4.8 | 14.5 | 0.00 | 0.00 | 0.00 | 34 | 1009.4 |
| 20260505011552 | 21 | 44 | 4.8 | 16.1 | 0.00 | 0.00 | 0.00 | 33 | 1009.4 |
| 20260505010051 | 21 | 36 | 6.4 | 16.1 | 0.00 | 0.00 | 0.00 | 33 | 1009.5 |
| 20260505004549 | 21 | 344 | 4.8 | 16.1 | 0.00 | 0.00 | 0.00 | 33 | 1009.5 |
| 20260505003050 | 22 | 132 | 4.8 | 17.7 | 0.00 | 0.00 | 0.00 | 32 | 1009.4 |
| 20260505001554 | 22 | 19 | 4.8 | 14.5 | 0.00 | 0.00 | 0.00 | 32 | 1009.4 |
| 20260505000105 | 22 | 66 | 4.8 | 17.7 | 0.00 | 0.00 | 0.00 | 30 | 1009.5 |
| 20260504234602 | 22 | 40 | 6.4 | 19.3 | 0.00 | 0.00 | 0.00 | 31 | 1009.5 |
| 20260504233046 | 22 | 72 | 6.4 | 20.9 | 0.00 | 0.00 | 0.00 | 31 | 1009.5 |
| 20260504231559 | 22 | 43 | 6.4 | 24.1 | 0.00 | 0.00 | 0.00 | 30 | 1009.5 |
| 20260504230052 | 22 | 22 | 6.4 | 19.3 | 0.00 | 0.00 | 0.00 | 30 | 1009.5 |
| 20260504224555 | 22 | 89 | 4.8 | 14.5 | 0.00 | 0.00 | 0.00 | 30 | 1009.7 |
| 20260504223055 | 22 | 70 | 6.4 | 19.3 | 0.00 | 0.00 | 0.00 | 31 | 1009.8 |
| 20260504221559 | 22 | 333 | 8.0 | 19.3 | 0.00 | 0.00 | 0.00 | 32 | 1009.8 |
| 20260504220053 | 22 | 344 | 4.8 | 20.9 | 0.00 | 0.00 | 0.00 | 32 | 1009.8 |
| 20260504214552 | 22 | 55 | 4.8 | 16.1 | 0.00 | 0.00 | 0.00 | 36 | 1009.9 |
| 20260504213053 | 22 | 0 | 3.2 | 19.3 | 0.00 | 0.00 | 0.00 | 33 | 1010.0 |
| 20260504211557 | 21 | 329 | 6.4 | 17.7 | 0.00 | 0.00 | 0.00 | 34 | 1010.1 |
| 20260504210108 | 21 | 333 | 12.9 | 25.7 | 0.00 | 0.00 | 0.00 | 34 | 1010.2 |
| 20260504204601 | 21 | 240 | 6.4 | 17.7 | 0.00 | 0.00 | 0.00 | 34 | 1010.3 |
| 20260504203052 | 21 | 349 | 9.7 | 22.5 | 0.00 | 0.00 | 0.00 | 34 | 1010.3 |
| 20260504201554 | 21 | 56 | 3.2 | 16.1 | 0.00 | 0.00 | 0.00 | 35 | 1010.3 |
| 20260504200100 | 21 | 27 | 11.3 | 22.5 | 0.00 | 0.00 | 0.00 | 36 | 1010.4 |
| 20260504194602 | 21 | 38 | 6.4 | 19.3 | 0.00 | 0.00 | 0.00 | 35 | 1010.4 |
| 20260504193053 | 21 | 355 | 4.8 | 16.1 | 0.00 | 0.00 | 0.00 | 37 | 1010.4 |
| 20260504191556 | 21 | 47 | 6.4 | 16.1 | 0.00 | 0.00 | 0.00 | 37 | 1010.4 |
| 20260504190117 | 20 | 85 | 6.4 | 19.3 | 0.00 | 0.00 | 0.00 | 38 | 1010.4 |
| 20260504184557 | 20 | 38 | 6.4 | 19.3 | 0.00 | 0.00 | 0.00 | 40 | 1010.4 |
| 20260504183053 | 20 | 46 | 8.0 | 20.9 | 0.00 | 0.00 | 0.00 | 39 | 1010.7 |
| 20260504181558 | 19 | 72 | 8.0 | 17.7 | 0.00 | 0.00 | 0.00 | 40 | 1010.7 |
| 20260504180143 | 19 | 339 | 6.4 | 17.7 | 0.00 | 0.00 | 0.00 | 40 | 1010.7 |
| 20260504174552 | 18 | 19 | 6.4 | 16.1 | 0.00 | 0.00 | 0.00 | 41 | 1010.6 |
| 20260504173114 | 18 | 70 | 9.7 | 16.1 | 0.00 | 0.00 | 0.00 | 42 | 1010.6 |
| 20260504171553 | 18 | 33 | 4.8 | 20.9 | 0.00 | 0.00 | 0.00 | 42 | 1010.7 |
| 20260504140112 | 6 | 0 | 0.0 | 0.0 | 0.00 | 0.00 | 0.00 | 93 | 1010.4 |
| 20260504120112 | 4 | 0 | 0.0 | 0.0 | 0.00 | 0.00 | 0.00 | 89 | 1009.6 |
| 20260504081601 | 8 | 0 | 0.0 | 0.0 | 0.00 | 0.00 | 0.00 | 78 | 1009.1 |